Dewpoint
30 30 30 31 32 32 31 32 33 33 33 32 32 32 32 32 31 32 32 32 32 32 32 32 32 32 32 32 32 32 32 32 32 32 33 33 32 31 31 31 30 30 30 30 30 30 30 30 30 30 30 30 29 29 29 28 28 28 28 28 28 28 27 27 27 26 26 26 26
31 31 32 33 34 34 33 33 33 33 34 33 33 33 32 32 32 32 32 32 32 32 32 32 33 32 32 32 33 33 33 32 32 33 33 34 33 32 32 32 31 31 31 31 30 31 31 31 30 30 30 30 30 29 29 29 29 28 28 28 28 28 28 27 27 27 27 26 26
31 31 32 32 32 32 32 32 32 32 32 33 33 33 33 33 33 32 32 32 32 32 32 32 33 33 33 33 33 33 33 33 32 32 33 33 33 33 32 32 32 32 32 32 32 32 32 31 31 31 31 30 30 30 29 29 29 29 29 28 28 28 28 28 28 28 27 27 27
31 31 31 31 31 31 31 31 31 32 32 32 32 33 33 33 33 33 33 33 33 33 33 33 33 33 33 33 33 33 33 34 34 33 33 33 33 33 33 33 32 32 32 32 32 32 32 32 32 32 32 31 31 30 30 30 30 30 29 29 29 29 29 29 29 28 28 28 27
30 30 31 31 31 31 31 31 31 31 31 32 32 32 32 32 32 33 33 33 33 33 33 33 32 33 33 33 33 32 33 34 35 35 34 33 33 33 33 33 33 33 33 33 33 32 32 32 32 32 32 32 31 31 31 31 30 30 30 30 29 29 29 29 29 29 29 29 28
31 31 31 30 30 30 30 31 31 31 31 31 31 31 31 32 32 32 32 32 32 32 33 34 34 34 34 34 33 33 33 32 33 34 33 33 33 33 33 33 33 33 33 33 33 33 32 32 32 32 32 32 32 31 31 31 31 30 30 30 30 30 30 29 29 29 29 29 29
31 31 31 31 31 31 31 31 31 31 31 31 31 31 31 31 31 31 32 32 32 32 33 34 34 34 34 34 33 33 33 33 33 33 33 33 33 33 33 33 33 33 33 33 33 33 33 33 32 33 33 33 33 32 32 31 31 31 30 30 30 30 30 30 30 29 29 29 29
31 31 32 32 32 31 31 31 31 31 31 31 31 31 31 31 31 31 31 31 31 32 32 33 33 33 33 33 33 33 32 32 32 32 32 32 32 32 32 32 32 32 32 32 32 32 32 32 32 32 32 33 32 32 32 32 31 31 31 31 31 31 31 31 31 30 30 29 29
32 32 32 32 32 32 31 31 30 30 30 31 31 31 31 31 31 31 31 31 32 32 33 33 33 32 32 32 32 32 32 32 32 32 32 32 32 32 32 32 31 31 32 32 32 32 32 32 32 32 32 32 32 32 32 32 32 32 31 31 31 31 31 31 31 30 30 29 29
32 32 32 32 32 32 32 31 30 30 30 31 31 32 32 33 33 33 33 33 34 34 34 33 33 33 33 32 33 33 33 32 32 32 32 32 32 32 32 31 31 31 31 31 31 31 31 31 31 32 32 32 32 32 32 32 32 32 32 32 32 31 31 31 31 30 30 30 30
32 32 32 32 33 33 33 32 31 31 31 32 32 32 33 34 34 34 34 34 34 34 34 34 34 33 33 33 33 33 33 32 32 32 32 32 32 32 32 31 31 31 31 31 31 31 31 31 31 31 31 32 32 32 32 32 32 32 32 32 32 32 31 31 31 31 31 31 30
32 32 32 33 33 33 32 32 32 32 32 32 33 33 33 33 33 33 33 33 33 33 34 34 34 33 33 33 33 33 33 32 32 32 32 32 31 31 31 31 31 31 31 31 31 31 31 31 31 31 31 31 32 32 32 32 32 32 32 32 32 32 32 31 31 31 31 31 31
32 32 32 33 33 32 32 32 33 33 33 33 33 33 33 33 33 33 33 32 33 33 34 34 34 33 33 33 33 33 33 32 32 32 32 32 31 31 31 31 31 31 31 31 31 31 31 31 31 31 31 31 32 32 32 32 32 32 32 32 32 32 32 32 31 31 31 31 31
32 32 33 33 33 32 32 32 33 33 33 33 34 34 34 33 34 34 34 33 33 34 34 34 34 34 34 33 33 33 33 33 32 32 32 32 31 31 31 31 31 31 32 32 32 31 31 31 31 31 31 31 32 32 32 32 32 32 32 32 32 32 32 32 32 31 31 31 31
32 33 33 33 33 33 33 33 34 34 34 34 34 34 34 34 34 34 34 34 34 34 34 34 34 34 34 34 34 33 33 33 32 32 32 32 31 31 31 31 31 32 32 32 32 32 31 31 31 31 31 31 32 32 32 32 32 32 32 32 32 32 32 32 32 31 31 31 31
33 33 33 33 33 33 34 34 34 34 34 34 35 35 34 34 35 35 35 35 35 35 34 34 34 34 34 34 34 34 33 33 32 32 31 31 31 31 31 31 31 32 32 32 32 31 31 31 31 31 32 32 32 32 32 32 32 32 32 32 32 32 32 32 32 32 32 31 31
33 34 33 33 33 34 34 34 35 35 35 35 35 35 35 35 35 36 36 36 36 35 35 34 34 34 34 34 34 34 33 32 32 32 31 31 31 31 31 31 31 32 32 31 31 31 31 31 31 31 32 32 32 32 32 32 32 32 32 32 32 32 32 32 32 32 32 32 32
34 34 34 33 34 34 34 34 35 35 35 35 35 36 36 36 36 36 36 36 35 34 34 34 34 34 33 33 33 33 32 32 32 31 31 31 31 31 31 31 32 32 32 32 31 31 31 31 31 31 32 32 32 32 32 32 32 32 32 32 32 32 32 32 32 32 32 31 32
34 34 34 34 34 34 34 35 35 35 35 35 35 35 35 35 35 35 35 34 34 34 34 33 33 33 32 32 32 32 32 32 31 31 31 31 31 31 31 31 32 32 32 32 32 32 32 31 31 31 31 32 32 32 32 32 32 32 32 32 32 32 32 32 32 32 32 31 32
34 34 34 34 34 34 34 35 35 35 35 35 35 35 35 35 34 34 34 34 34 34 33 33 32 32 32 32 31 31 32 32 31 31 31 31 31 32 32 32 32 32 32 32 32 32 32 32 31 31 31 32 32 32 32 32 32 32 32 32 32 32 32 32 32 32 31 31 31
34 34 34 34 34 34 34 34 34 34 34 34 34 34 34 34 34 34 34 34 33 33 33 32 32 32 31 31 31 31 31 32 31 31 31 32 32 32 32 32 32 32 32 32 32 32 32 32 32 32 32 32 32 32 32 32 32 32 32 32 32 32 32 32 32 31 31 31 31
34 33 34 34 34 34 34 34 34 34 34 34 34 34 34 34 34 33 33 33 33 33 32 32 32 31 31 31 31 31 31 32 32 32 32 32 32 33 33 33 32 32 32 32 32 32 32 32 32 32 32 32 32 32 32 32 32 32 32 32 32 32 32 32 32 31 31 31 31
33 33 33 34 34 34 34 34 34 34 34 34 34 34 34 33 33 33 33 33 33 32 32 32 32 32 31 31 31 31 31 32 32 32 32 32 32 33 33 33 32 32 32 32 32 32 32 32 32 32 32 32 32 32 32 32 32 32 32 32 32 32 32 32 32 31 31 31 31
33 33 33 34 33 34 34 34 34 33 33 33 33 33 33 33 33 33 33 32 32 32 32 32 32 32 32 32 32 32 32 32 32 32 32 32 32 32 33 33 33 33 33 33 34 34 34 34 34 33 33 33 33 33 33 32 33 33 33 32 32 32 32 32 32 31 31 31 31
33 33 33 33 33 33 33 33 33 33 33 33 33 33 33 33 33 32 32 32 32 32 32 32 32 32 32 32 32 32 32 32 32 32 32 32 32 33 33 33 33 33 33 34 36 37 38 38 37 36 35 34 34 34 33 33 33 33 33 33 33 33 33 33 32 32 31 31 31
33 33 33 32 32 32 32 32 32 32 32 32 32 32 32 32 32 32 32 32 32 32 32 32 32 32 32 32 32 32 32 32 32 32 32 32 32 33 33 33 33 33 34 35 37 38 39 39 39 38 37 36 35 35 35 35 34 34 34 34 34 34 34 34 33 33 32 32 31
32 32 32 32 32 32 32 32 32 32 32 32 32 32 32 32 32 32 32 32 32 31 31 31 31 32 33 32 32 32 32 32 32 32 32 32 32 33 33 33 33 33 34 36 38 38 39 39 39 39 39 38 37 37 37 38 36 36 36 36 36 35 35 34 34 34 33 33 32
32 32 32 32 32 32 32 32 31 31 31 31 31 31 31 31 31 31 31 31 31 31 31 31 31 31 31 31 31 31 32 32 32 32 32 32 33 33 33 33 33 34 35 37 38 38 39 39 39 39 39 38 38 37 36 37 37 38 38 38 38 37 37 36 35 34 34 34 33
31 31 31 31 31 31 31 31 31 31 31 31 31 31 31 31 31 31 31 30 30 30 30 31 31 31 31 31 31 31 32 32 32 32 32 32 32 32 32 32 32 34 35 37 38 38 38 39 39 39 39 39 39 38 38 38 38 39 39 39 39 39 38 38 37 36 35 34 34
31 31 31 31 31 31 31 30 30 30 30 30 30 30 30 30 30 30 29 29 29 29 30 30 30 30 30 30 30 31 31 31 31 31 31 31 31 31 32 32 32 33 35 37 38 38 38 39 39 39 39 40 39 39 38 39 39 39 40 40 40 40 39 39 38 37 36 35 35
31 31 31 31 30 30 30 30 30 30 30 30 29 29 29 29 29 29 29 29 29 29 30 30 29 29 29 29 29 29 30 30 30 30 30 30 31 31 31 31 31 33 34 37 38 38 38 39 39 39 40 40 40 40 39 39 40 40 40 40 40 40 40 40 39 38 37 36 35
31 30 30 30 30 30 30 29 29 29 29 29 29 28 28 28 28 28 28 28 28 28 29 28 28 28 28 28 29 29 29 29 29 30 30 30 30 31 31 31 31 33 34 37 38 38 38 39 39 40 40 40 41 40 40 40 40 40 40 40 40 40 40 39 39 39 38 37 36
30 30 30 29 29 29 29 29 29 28 28 28 27 27 27 27 27 27 27 27 27 27 27 27 27 27 27 28 28 28 28 29 29 30 31 31 31 30 31 31 31 33 35 37 38 38 38 39 39 40 40 40 41 40 40 40 40 40 40 40 40 40 39 39 39 39 39 38 38
29 29 29 29 29 29 28 28 28 27 27 27 26 26 26 26 26 26 26 26 26 26 26 26 27 27 27 27 27 28 29 29 29 29 30 30 30 30 30 31 31 33 35 37 38 38 38 39 39 40 40 40 40 40 40 40 40 40 40 40 40 39 39 38 38 38 38 38 38
29 29 28 28 28 28 27 27 27 26 26 25 25 25 25 25 25 25 25 26 27 26 26 26 26 26 27 27 28 28 29 29 29 29 29 29 30 30 30 31 31 33 35 37 38 38 38 39 39 39 40 40 40 40 40 40 40 40 40 39 39 38 38 38 37 37 37 38 38
28 28 27 27 27 27 26 26 26 25 25 25 24 24 25 25 25 25 25 26 26 26 26 26 26 26 27 27 28 29 29 29 29 29 29 30 30 30 30 30 31 33 35 37 38 38 38 39 39 39 40 40 40 40 40 40 40 39 39 38 38 38 38 38 37 37 37 38 38
27 27 27 27 26 26 26 25 25 25 24 24 24 24 24 25 25 25 25 26 25 25 25 25 26 26 27 27 28 28 29 29 29 29 29 30 30 31 31 31 31 33 35 37 38 38 38 39 39 39 39 39 40 40 40 40 39 39 38 38 38 38 38 38 38 38 37 36 37
26 26 26 26 26 25 25 25 24 24 23 23 24 24 24 24 24 25 25 26 25 25 25 26 26 26 27 27 28 28 29 29 29 30 30 30 31 31 31 31 32 33 34 36 37 38 38 39 39 39 39 39 39 39 39 39 38 38 38 38 38 38 38 38 38 38 38 36 38
26 26 26 25 25 25 24 24 23 23 23 23 23 24 24 24 24 25 25 26 25 25 25 26 26 26 27 28 28 29 29 29 30 30 30 30 31 32 32 32 32 33 34 36 37 38 38 39 39 39 39 40 39 39 39 38 38 38 38 37 38 38 38 38 38 38 38 37 38
25 25 25 25 24 24 23 23 23 23 23 23 23 23 24 24 25 25 26 26 25 25 25 25 26 26 27 28 29 29 29 29 29 30 30 31 31 33 34 33 33 33 34 36 37 38 38 39 39 39 40 40 39 39 39 38 38 38 37 37 37 37 37 37 37 37 37 37 38
25 25 24 24 24 23 23 23 23 23 23 23 23 24 25 25 25 25 25 25 25 25 25 25 26 26 27 29 29 29 29 29 29 30 31 31 32 33 34 33 33 33 34 35 37 38 38 39 39 40 40 40 40 39 39 38 38 37 37 37 37 37 37 37 37 37 36 36 36